Emsworth, United Kingdom
Current Conditions -  °F | °C
As of 1:20 PM on Tuesday 21 Oct 2014 (Local Time) from EGHI Reporting Station
Scattered Clouds Scattered Clouds  
Wind Chill: 55°   Ceiling: Unl
Heat Index: 55°   Visibility: 6mi
Dew Point: 37°   Wind: 23mph
Humidity: 51%   Direction: 290°WNW
Pressure: 29.8"   Gusts: 38mph
Location:  50.85°N, 0.94°W
Report Text: EGHI 211220Z 29020G33KT 250V340 9999 SCT048 13/03 Q1009
Loading
Personal Weather Stations






























Interactive Weather Map
Tropical Storm Tracking
New forecast layout! Learn more

10-Day Weather Forecast

Advertisements
Track Severe Weather on mobile